Retour au catalogue

FENGYUN 1C DEB

ActifSSO
NORAD 29868·DEBRIS·🇨🇳 China

Lancé May 10, 1999 depuis Taiyuan Satellite Launch Center

Loading…

Prochains Passages (prochaines 24 heures)

TLE

FraisSource: Space-Track

Époque: Sep 14, 2026, 21:33 UTC

1 29868U 99025FN  26257.89810927  .00005138  00000-0  48631-3 0  9996
2 29868  97.9131 305.5440 0186905 186.6472 173.2259 14.81768451 43819

Suivez FENGYUN 1C DEB en temps réel avec AllMySat

Download on the App Store